Location: Kervinic
(48.4279°N, 4.7373°W)
Time: 16:51:36
(UTC+00:00)

Cosmos 1606 Rocket - Pass Details

Date: 09 April 2020
Orbit: 602 x 633 km, 82.5° (Epoch: 02 June)

Event Time Altitude Azimuth Distance (km) Brightness Sun altitude
Rises 19:26:07 0° 175° (S) 2,896 6.8 -4.7°
Reaches altitude 10° 19:28:21 10° 171° (S) 1,999 5.9 -5.1°
Maximum altitude 19:32:40 54° 95° (E) 769 3.7 -5.7°
Drops below altitude 10° 19:37:04 10° 18° (NNE) 2,027 6.2 -6.4°
Sets 19:39:21 0° 14° (NNE) 2,941 7.1 -6.8°
